Regional Weather Roundup
Issued by NWS Newport/Morehead, NC

Current Version | Previous Version | Text Only | Print | Product List | Glossary Off
Versions: 1 2 3 4 5 6 7 8 9 10 11 12 13 14 15 16 17 18 19 20 21 22 23 24 25 26 27 28 29 30 31 32 33 34 35 36 37 38 39 40 41 42 43 44 45 46 47 48 49 50
000 ASUS42 KMHX 221010 RWRMHX WEATHER ROUNDUP FOR EASTERN NORTH CAROLINA NATIONAL WEATHER SERVICE NEWPORT/MOREHEAD CITY NC 600 AM EDT MON SEP 22 2014 NOTE: "FAIR" INDICATES FEW OR NO CLOUDS BELOW 12,000 FEET WITH NO SIGNIFICANT WEATHER AND/OR OBSTRUCTIONS TO VISIBILITY NCZ015>017-031-032-045>047-102-103-221100- NORTH COAST CITY SKY/WX TMP DP RH WIND PRES REMARKS EDENTON PTCLDY 71 68 89 W6 29.89R ELIZABETH CITY PTCLDY 70 66 87 W7 29.88R KITTY HAWK CLOUDY 73 67 81 W5 29.87R MANTEO CLOUDY 73 66 81 W5 29.89R $$ NCZ045>047-081-094-103-104-221100- CENTRAL COAST CITY SKY/WX TMP DP RH WIND PRES REMARKS FRISCO MOCLDY 74 71 91 W9 29.90R SWANQUARTER N/A 73 N/A N/A W7 29.85S $$ NCZ095-097-098-100-101-221100- SOUTHERN COAST CITY SKY/WX TMP DP RH WIND PRES REMARKS BEAUFORT PTCLDY 77 67 71 W12 29.91R CEDAR ISLAND N/A 75 N/A N/A SW6G13 29.94R JACKSONVILLE MOCLDY 69 65 86 W6 29.91R NEWPORT NOT AVBL PINEY ISLAND CLOUDY 76 66 71 SW8 29.91R WILMINGTON MOCLDY 73 64 73 W10 29.93R $$ NCZ011>013-027>030-043-044-078>080-089-090>093-098-221100- COASTAL PLAIN CITY SKY/WX TMP DP RH WIND PRES REMARKS AHOSKIE PTCLDY 68 62 80 CALM 29.91R CLINTON PTCLDY 71 67 88 CALM 29.93R ELIZABETHTOWN MOCLDY 71 65 80 CALM 29.93R GOLDSBORO PTCLDY 71 70 96 CALM 29.91R GREENVILLE PTCLDY 70 66 88 CALM 29.93R HAVELOCK NOT AVBL KENANSVILLE PTCLDY 72 64 77 W5 29.93R KINSTON PTCLDY 71 66 84 CALM 29.93R NEW BERN CLOUDY 73 65 75 W6 29.92R RICHLANDS MOCLDY 70 63 78 SW3 29.92R ROANOKE RAPIDS NOT AVBL ROCKY MOUNT CLOUDY 70 61 73 NW6 29.92R WASHINGTON PTCLDY 69 66 91 CALM 29.91R WHITEVILLE CLEAR 72 65 79 CALM 29.93R $$ AMZ130-135-150-152-154-156-158-170-250-252-270-ANZ085-086-088-633-658-670-221100- MARINE OBSERVATIONS STATION/POSITION TIME TEMP WIND PRES WAVE SWELL AIR SEA DIR/SP/G HT/PER HT/PER (UTC) (F) (DEG/KT/KT) (MB) (FT/S) (FT/S) CHESAPEAKE LIGHT 0900 75 300/ 16/ 17 1011.3 BUOY 44014 1000 74 76 270/ 14/ 16 1010.7 5/ 9 3/ 9 DUCK 1000 74 75 270/ 9/ 10 1010.8 2E DUCK 1000 N/A 3/10 2/11 OREGON INLET 1000 74 76 240/ 10/ 12 1011.6 BUOY 44095 1000 74 N/A 5/ 9 2/11 20E OREGON INLET NOT AVBL HATTERAS CG NOT AVBL DIAMOND BUOY 1000 81 240/ 19/ 23 1011.7 7/ 6 2/10 CAPE LOOKOUT 0900 78 240/ 11/ 14 1012.0 BEAUFORT LAB 1000 77 75 260/ 4/ 12 1012.3 30 SE NEW RIVER 1000 81 82 250/ 21/ 23 1011.9 6/ 6 2/ 8 5 SE WRIGHTSVILL 0900 75 79 250/ 14/ 16 N/A BUOY 41002 0920 80 81 260/ 12/ 14 1016.0 5/ 8 5/ 8 BUOY 41004 1000 81 81 260/ 16/ 19 1013.7 5/ 6 2/ 8 $$

USA.gov is the U.S. government's official web portal to all federal, state and local government web resources and services.